Location: Unspecified
(35.7250°N, 0.0000°E)
Time: 01:21:23
(UTC+00:00)

Explorer 7 - Pass Details

Date: 20 June 2019
Orbit: 485 x 680 km, 50.3° (Epoch: 16 August)

Event Time Altitude Azimuth Distance (km) Brightness Sun altitude
Rises 16:53:37 0° 299° (WNW) 3,023 11.7 26.7°
Reaches altitude 10° 16:56:14 10° 288° (WNW) 2,114 11.6 26.2°
Maximum altitude 17:00:24 28° 230° (SW) 1,256 9.4 25.4°
Drops below altitude 10° 17:04:32 10° 171° (S) 2,090 9.6 24.6°
Sets 17:07:07 0° 160° (SSE) 2,983 10.3 24.1°
